Location: Unspecified
(0.0000°N, 0.0000°E)
Time: 09:17:24
(UTC+00:00)

BEESAT 2 - Pass Details

Date: 20 May 2021
Orbit: 493 x 525 km, 64.9° (Epoch: 16 June)

Event Time Altitude Azimuth Distance (km) Brightness Sun altitude
Exits shadow 04:38:13 26° 307° (NW) 1,024 ? -18.4°
Drops below altitude 10° 04:41:02 10° 351° (N) 1,735 ? -17.7°
Sets 04:43:26 0° 4° (N) 2,624 ? -17.1°
